Погода в Кастории

Греция     40°31′20″N   21°15′40″E
темп.,
°C
ветер,
м/с
пор.,
м/с
влажн.,
%
обл.,
%
осадки,
мм/ч
давл.,
гПа
погр.,
м
4 марта, чт
чт423:00+5ююв00540 0.0 102922
02:00+4ссз11570 0.0 102822
05:00+3сз11570 0.0 102722
08:00+4сз11570 0.0 102622
11:00+11юз11410 0.0 1024371
14:00+15юз13330 0.0 10221125
17:00+15з24370 0.0 1020994
20:00+8сз22540 0.0 102128
5 марта, пт
пт523:00+6зсз22656 0.0 102123
02:00+4зсз22766 0.0 102123
05:00+3зсз22790 0.0 102023
08:00+4зсз22761 0.0 102043
11:00+10з24404 0.0 1019714
14:00+14зсз342717 0.0 10171640
17:00+13з443886 0.0 10171036
20:00+7сз235391 0.0 101834
6 марта, сб
сб623:00+6зсз2261100 0.0 101925
02:00+6юз1273100 0.1 102036
05:00+5з2275100 0.0 102046
08:00+5зсз1275100 0.0 1021116
11:00+10зсз235339 0.0 1021831
14:00+12сз334541 0.0 10201639
17:00+12ссз225287 0.3 10201336
20:00+7ссв357892 0.7 1023164
7 марта, вс
вс723:00+6всв3485100 0.8 1025289
02:00+4св2278100 0.9 1025235
05:00+3св227384 0.0 1025105
08:00+3св227185 0.0 1025120
11:00+7вюв226277 0.0 1025614
14:00+8юв347287 0.0 1023713
17:00+7ююв3480100 0.1 1021566
20:00+5ююв249093 0.1 1021185
8 марта, пн
пн823:00+4юв129375 0.0 1022132
02:00+4ююв119580 0.0 102194
05:00+3вюв019668 0.0 101960
08:00+4ююв019162 0.0 101985
11:00+7ююв227165 0.0 1019685
14:00+9ююв326583 0.0 1017822
17:00+10ююв336787 0.0 1015603
20:00+6юв238983 0.3 101680